Regional Weather Roundup
Issued by NWS

Home | Current Version | Previous Version | Text Only | Print | Product List | Glossary Off
Versions: 1 2 3 4 5 6 7 8 9 10 11 12 13 14 15 16 17 18 19 20 21 22 23 24 25 26 27 28

000
ASUS45 KTFX 251910
RWRMT
MONTANA REGIONAL WEATHER ROUNDUP
NATIONAL WEATHER SERVICE GREAT FALLS MT
100 PM MDT MON JUL 25 2016

NOTE: "FAIR" INDICATES FEW OR NO CLOUDS BELOW 12000 FEET WITH NO
SIGNIFICANT WEATHER AND/OR OBSTRUCTIONS TO VISIBILITY.

MTZ001>007-043-252000-
WEST OF THE DIVIDE

CITY           SKY/WX    TMP DP  RH WIND       PRES   REMARKS
KALISPELL      SUNNY     82  51  34 NE10G17   30.07F
MISSOULA       SUNNY     83  47  28 CALM      30.08F
BUTTE          SUNNY     82  38  20 N7        30.17F
MULLAN PASS    SUNNY     69  45  41 CALM      30.25R
ANACONDA         N/A     79  43  27 N9        30.14F
DEER LODGE       N/A     81  39  22 W5        30.15F
EUREKA           N/A     82  52  34 CALM      30.07F
HAMILTON         N/A     79  46  31 NW6       30.10F
LIBBY            N/A     84  50  30 W6        30.06F
$$

MTZ008-052>055-252000-
SOUTHWEST MONTANA

CITY           SKY/WX    TMP DP  RH WIND       PRES   REMARKS
BOZEMAN        SUNNY     85  41  21 VRB5      30.10F
DILLON         SUNNY     80  45  28 VRB3      30.14F
W YELLOWSTONE  SUNNY     81  23  12 SW10G20   30.26F
ENNIS          SUNNY     86  30  13 N8        30.18F
$$

MTZ009-010-012-014-046-048-049-054-252000-
EAST SLOPES AND CENTRAL MONTANA

CITY           SKY/WX    TMP DP  RH WIND       PRES   REMARKS
CUT BANK       SUNNY     78  52  40 N17       30.13F
GREAT FALLS    SUNNY     84  44  24 MISG      30.09F
MALMSTROM AFB  SUNNY     82  45  26 S6        30.08F
HELENA         SUNNY     86  41  20 VRB5      30.07F
CHOTEAU          N/A     81  46  30 NE9       30.14F
$$

MTZ011-013-016-021-045-047-050-051-252000-
NORTH CENTRAL MONTANA

CITY           SKY/WX    TMP DP  RH WIND       PRES   REMARKS
HAVRE            N/A     86  52  30 MISG      30.02S
LEWISTOWN      SUNNY     82  50  32 NW9       30.12S
N BAR RANCH      N/A     82  45  26 NW9       30.14S
CHINOOK          N/A     86  52  30 SW6       30.01S
$$

MTZ017>020-022>027-061-062-252000-
NORTHEAST MONTANA

CITY           SKY/WX    TMP DP  RH WIND       PRES   REMARKS
GLASGOW        SUNNY     90  47  22 VRB3      29.98F
JORDAN           N/A     92  44  19 VRB6      29.99S
SIDNEY         SUNNY     88  58  36 E7        29.97F
WOLF POINT     SUNNY     92  47  21 N14       29.97F
PLENTYWOOD       N/A     86  52  30 N3        30.00S
POPLAR           N/A     88  52  29 N5        29.98F
$$

MTZ028>42-056>058-252000-
SOUTHCENTRAL AND SOUTHEAST MONTANA

CITY           SKY/WX    TMP DP  RH WIND       PRES   REMARKS
BAKER          SUNNY     94  41  16 NE7       30.01F HX  90
BILLINGS       MOSUNNY   89  43  20 VRB6      30.04F
LIVINGSTON     SUNNY     88  35  15 N5        30.09F
MILES CITY     SUNNY     94  41  16 N7        29.98F HX  90
FORSYTH          N/A     91  43  18 N6        29.98F
$$

REGIONAL REPORTS...DAKOTAS

CITY           SKY/WX    TMP DP  RH WIND       PRES   REMARKS
WILLISTON      SUNNY     89  53  29 NE7       29.97F
MINOT          SUNNY     88  62  41 E7        29.95S
DICKINSON      SUNNY     89  52  28 VRB3      29.98S
BEACH            N/A     90  48  24 NE8       30.03S
CROSBY           N/A     82  61  47 N3        30.01S
WATFORD CITY     N/A    N/A N/A N/A MISG        N/A
BISMARCK       SUNNY     88  66  48 S10       29.96F HX  90
GRAND FORKS    SUNNY     85  63  47 SE12      29.97F
FARGO          SUNNY     85  64  49 S13G21    30.00F
BUFFALO SD       N/A     98  43  15 SW10G16   29.93F HX  94
RAPID CITY     SUNNY     90  57  32 S20G26    30.05F
$$

REGIONAL REPORTS...WYOMING/IDAHO/WASHINGTON

CITY           SKY/WX    TMP DP  RH WIND       PRES   REMARKS
GILLETTE       SUNNY     91  36  14 SE5       30.08F
SHERIDAN       SUNNY     95  39  14 VRB5      30.04F HX  91
BUFFALO WY     SUNNY     92  33  12 E10G20    30.11F
CODY           SUNNY     88  37  16 NE12      30.12F
YELLOWSTONE LA   N/A     73  39  29 E6        30.37F
IDAHO FALLS    SUNNY     86  31  13 VRB5      30.13F
SALMON         SUNNY     82  43  24 NW5       30.04F
BOISE          SUNNY     87  41  19 CALM      30.02F
SPOKANE        MOSUNNY   84  46  26 SE3       30.05F
$$

REGIONAL REPORTS...ALBERTA

CITY           SKY/WX    TMP DP  RH WIND       PRES   REMARKS
EDMONTON       MOSUNNY   75  50  41 W6        30.07S
CALGARY        MOSUNNY   72  52  49 S10G17    30.13F
LETHBRIDGE     MOSUNNY   73  57  56 N7        30.13S
MEDICINE HAT   PTSUNNY   81  57  44 NE8G17    30.05F
WATERTON GATE    N/A     73  54  49 NE8         N/A
CARDSTON         N/A     72  54  53 N7          N/A
MILK RIVER       N/A     75  57  53 N13G21      N/A
ONEFOUR          N/A     82  48  30 E3          N/A
$$

REGIONAL REPORTS...SASKATCHEWAN

CITY           SKY/WX    TMP DP  RH WIND       PRES   REMARKS
SWIFT CURRENT  SUNNY     77  59  53 NE9       30.05S
REGINA         PTSUNNY   81  63  54 N5        29.99S
SASKATOON      MOSUNNY   79  52  38 NW17G25   30.03S
CYPRESS HILLS    N/A     72  57  60 NE6         N/A
VAL MARIE        N/A     84  48  28 N6          N/A
ROCKGLEN         N/A     82  52  34 N8          N/A
ASSINIBOIA       N/A     72  52  49 NW3         N/A
$$




USA.gov is the U.S. government's official web portal to all federal, state and local government web resources and services.